EW8487 Chirivel current weather conditions

sailwx.info

Wind from 217 at 3 knots gusting 10

Air temperature 17.8° C
Dewpoint 10.4° C

Last reported at 2020-Sep-19 08:59 UTC.
Time now 2020-Sep-19 09:19 UTC

Location: N 37°36' W 002°16'.
View on Google Maps.

See reports from other nearby stations

  
Tides and Currents Weather Stations Pressure Air Temp Water Temp Dewpoint Dewpoint Depression Visibility Wind Speed Wind Dir Waves Ship Positions
date/time (UTC)wind fromknots sea level pressurealtimeterstation pressurevisibilityair tempwater tempwave heightnotes
2020-Sep-19 08:59 217 3 gusting 10 17.8
2020-Sep-19 08:54 141 0 gusting 10 17.8
2020-Sep-19 08:49 291 4 gusting 10 17.8
2020-Sep-19 08:44 068 2 gusting 8 17.8
2020-Sep-19 08:39 243 0 gusting 8 17.2
2020-Sep-19 08:34 338 0 gusting 6 17.2
2020-Sep-19 08:29 247 0 gusting 10 17.2
2020-Sep-19 08:24 176 2 gusting 10 17.2
2020-Sep-19 08:19 100 16.7
2020-Sep-19 08:14 355 1 gusting 6 16.7
2020-Sep-19 08:09 173 3 gusting 6 16.7
2020-Sep-19 08:03 122 16.7
2020-Sep-19 07:58 288 1 gusting 6 16.7
2020-Sep-19 07:53 034 0 gusting 6 16.1
2020-Sep-19 07:48 202 0 gusting 4 16.1
2020-Sep-19 07:43 109 1 gusting 6 15.6
2020-Sep-19 07:38 014 0 gusting 4 15.6
2020-Sep-19 07:33 198 1 gusting 4 15.6
2020-Sep-19 07:28 138 1 gusting 6 15.0
2020-Sep-19 07:23 118 1 gusting 6 15.0
2020-Sep-19 07:18 125 14.4
2020-Sep-19 07:12 327 0 gusting 4 14.4
2020-Sep-19 07:07 113 13.9
2020-Sep-19 07:02 309 0 gusting 4 13.3
2020-Sep-19 06:57 108 13.3
2020-Sep-19 06:52 069 1 gusting 1 12.8
2020-Sep-19 06:47 132 12.8
2020-Sep-19 06:42 139 0 gusting 1 12.8
2020-Sep-19 06:37 147 12.2
2020-Sep-19 06:32 204 12.2
2020-Sep-19 06:27 176 12.2
2020-Sep-19 06:22 152 12.2
2020-Sep-19 06:17 184 2 gusting 4 12.2
2020-Sep-19 06:11 161 2 gusting 4 12.2
2020-Sep-19 06:06 154 12.2
2020-Sep-19 06:01 134 12.2
2020-Sep-19 05:56 158 12.2
2020-Sep-19 05:51 157 12.2
2020-Sep-19 05:46 132 12.2
2020-Sep-19 05:41 156 11.7
2020-Sep-19 05:36 128 11.7
2020-Sep-19 05:31 206 1 gusting 4 11.7
2020-Sep-19 05:26 270 0 gusting 1 11.7
2020-Sep-19 05:21 152 11.7
2020-Sep-19 05:16 134 11.7
2020-Sep-19 05:10 163 11.7
2020-Sep-19 05:06 161 11.7
2020-Sep-19 05:00 159 11.7
2020-Sep-19 04:55 157 11.7
2020-Sep-19 04:50 158 11.7
2020-Sep-19 04:45 139 11.7
2020-Sep-19 04:40 202 11.7
2020-Sep-19 04:35 154 12.2
2020-Sep-19 04:30 124 12.2
2020-Sep-19 04:25 159 12.2
2020-Sep-19 04:15 107 12.2
2020-Sep-19 04:09 136 12.2
2020-Sep-19 04:04 128 12.2
2020-Sep-19 03:59 139 12.2
2020-Sep-19 03:54 153 12.2
2020-Sep-19 03:49 160 12.2
2020-Sep-19 03:44 132 12.2
2020-Sep-19 03:39 034 12.2
2020-Sep-19 03:34 130 12.2
2020-Sep-19 03:29 180 12.2
2020-Sep-19 03:24 157 12.2
2020-Sep-19 03:18 178 12.2
2020-Sep-19 03:13 137 12.2
2020-Sep-19 03:08 134 12.2
2020-Sep-19 03:03 132 12.2
2020-Sep-19 02:58 136 12.2
2020-Sep-19 02:53 139 12.8
2020-Sep-19 02:48 180 12.8
2020-Sep-19 02:43 151 12.8
2020-Sep-19 02:38 135 12.8
2020-Sep-19 02:33 155 13.3
2020-Sep-19 02:28 281 13.3
2020-Sep-19 02:23 139 13.3
2020-Sep-19 02:17 215 13.9
2020-Sep-19 02:12 192 13.9
2020-Sep-19 02:07 135 13.9
2020-Sep-19 02:02 158 13.9
2020-Sep-19 01:57 131 14.4
2020-Sep-19 01:52 127 14.4
2020-Sep-19 01:47 138 14.4
2020-Sep-19 01:42 269 14.4
2020-Sep-19 01:37 170 14.4
2020-Sep-19 01:32 274 1 gusting 4 14.4
2020-Sep-19 01:27 155 15.0
2020-Sep-19 01:21 292 0 gusting 4 15.0
2020-Sep-19 01:16 301 1 gusting 4 15.0
2020-Sep-19 01:11 141 0 gusting 1 15.0
2020-Sep-19 01:06 128 15.0
2020-Sep-19 01:01 187 0 gusting 1 15.0
2020-Sep-19 00:56 179 14.4
2020-Sep-19 00:51 126 14.4
2020-Sep-19 00:46 139 14.4
2020-Sep-19 00:41 314 15.0
2020-Sep-19 00:36 215 15.0
2020-Sep-19 00:31 117 15.0
2020-Sep-19 00:25 158 15.0
2020-Sep-19 00:20 135 15.0
2020-Sep-19 00:15 129 15.0
2020-Sep-19 00:10 129 15.6
2020-Sep-19 00:05 135 15.6
2020-Sep-19 00:00 117 15.6
2020-Sep-18 23:55 139 15.6
2020-Sep-18 23:50 135 15.6
2020-Sep-18 23:45 162 15.6
2020-Sep-18 23:40 156 15.6
2020-Sep-18 23:34 132 15.6
2020-Sep-18 23:29 134 15.6
2020-Sep-18 23:24 159 15.6
2020-Sep-18 23:19 130 15.6
2020-Sep-18 23:14 160 15.6
2020-Sep-18 23:09 160 15.6
2020-Sep-18 23:04 138 15.6
2020-Sep-18 22:59 131 15.6
2020-Sep-18 22:54 132 15.6
2020-Sep-18 22:49 133 16.1
2020-Sep-18 22:44 130 16.1
2020-Sep-18 22:39 127 16.1
2020-Sep-18 22:33 135 16.1
2020-Sep-18 22:28 132 16.1
2020-Sep-18 22:23 128 16.7
2020-Sep-18 22:18 157 16.7
2020-Sep-18 22:13 145 16.7
2020-Sep-18 22:08 132 16.7
2020-Sep-18 22:03 131 16.7
2020-Sep-18 21:58 139 16.7
2020-Sep-18 21:53 139 16.7
2020-Sep-18 21:48 125 16.7
2020-Sep-18 21:43 133 17.2
2020-Sep-18 21:37 121 17.2
2020-Sep-18 21:32 130 17.2
2020-Sep-18 21:27 130 17.2
2020-Sep-18 21:22 064 1 gusting 4 17.2
2020-Sep-18 21:17 128 17.2
2020-Sep-18 21:12 110 17.2
2020-Sep-18 21:07 122 17.2
2020-Sep-18 21:02 088 0 gusting 4 17.2
2020-Sep-18 20:57 130 17.2
2020-Sep-18 20:52 047 3 gusting 4 17.2
2020-Sep-18 20:46 130 17.2
2020-Sep-18 20:41 118 17.2
2020-Sep-18 20:36 059 0 gusting 4 17.8
2020-Sep-18 20:31 120 17.8
2020-Sep-18 20:26 134 0 gusting 4 17.8
2020-Sep-18 20:21 124 17.8
2020-Sep-18 20:16 128 17.8
2020-Sep-18 20:11 129 17.8
2020-Sep-18 20:06 129 17.8
2020-Sep-18 20:01 106 2 gusting 6 17.8
2020-Sep-18 19:56 117 1 gusting 6 17.8
2020-Sep-18 19:50 157 2 gusting 6 17.8
2020-Sep-18 19:45 107 2 gusting 6 17.8
2020-Sep-18 19:40 128 17.8
2020-Sep-18 19:35 083 17.8
2020-Sep-18 19:30 098 1 gusting 4 17.8
2020-Sep-18 19:25 117 17.8
2020-Sep-18 19:20 125 17.8
2020-Sep-18 19:15 328 1 gusting 4 17.8
2020-Sep-18 19:10 080 17.8
2020-Sep-18 19:05 121 17.8
2020-Sep-18 19:00 262 0 gusting 6 17.8
2020-Sep-18 18:55 190 2 gusting 6 17.8
2020-Sep-18 18:49 168 17.8
2020-Sep-18 18:44 128 17.8
2020-Sep-18 18:39 138 18.3
2020-Sep-18 18:34 117 0 gusting 6 17.8
2020-Sep-18 18:29 121 0 gusting 6 17.8
2020-Sep-18 18:24 137 17.8
2020-Sep-18 18:19 118 17.8
2020-Sep-18 18:14 006 18.3
2020-Sep-18 18:09 065 3 gusting 4 18.3
2020-Sep-18 18:04 119 18.3
2020-Sep-18 17:58 127 2 gusting 6 18.3
2020-Sep-18 17:53 089 0 gusting 6 18.3
2020-Sep-18 17:48 132 0 gusting 6 18.3
2020-Sep-18 17:43 166 3 gusting 6 18.9
2020-Sep-18 17:38 134 18.9
2020-Sep-18 17:33 139 5 gusting 8 18.9
2020-Sep-18 17:28 166 2 gusting 10 18.9
2020-Sep-18 17:23 187 3 gusting 10 18.9
2020-Sep-18 17:18 203 6 gusting 10 19.4
2020-Sep-18 17:13 131 3 gusting 10 19.4
2020-Sep-18 17:08 175 1 gusting 10 19.4
2020-Sep-18 17:02 093 19.4
2020-Sep-18 16:57 063 0 gusting 10 19.4
2020-Sep-18 16:52 163 6 gusting 13 19.4
2020-Sep-18 16:47 165 6 gusting 13 19.4
2020-Sep-18 16:42 180 1 gusting 14 20.0
2020-Sep-18 16:37 126 4 gusting 19 20.0
2020-Sep-18 16:32 178 2 gusting 19 20.0
2020-Sep-18 16:27 162 13 gusting 17 20.0
2020-Sep-18 16:22 195 7 gusting 21 20.6
2020-Sep-18 16:17 182 12 gusting 21 20.6
2020-Sep-18 16:12 184 13 gusting 19 20.6
2020-Sep-18 16:06 181 6 gusting 19 20.6
2020-Sep-18 16:01 166 3 gusting 17 20.6
2020-Sep-18 15:56 171 9 gusting 17 20.6
2020-Sep-18 15:51 209 8 gusting 14 20.6
2020-Sep-18 15:46 140 0 gusting 14 20.6
2020-Sep-18 15:41 136 4 gusting 14 20.6
2020-Sep-18 15:36 179 5 gusting 19 20.6
2020-Sep-18 15:31 174 6 gusting 19 20.6
2020-Sep-18 15:26 178 11 gusting 19 20.6
2020-Sep-18 15:21 171 5 gusting 17 20.6
2020-Sep-18 15:16 173 3 gusting 24 20.6
2020-Sep-18 15:10 185 17 gusting 24 20.6
2020-Sep-18 15:05 069 6 gusting 19 20.6
2020-Sep-18 15:00 189 9 gusting 19 20.6
2020-Sep-18 14:55 206 7 gusting 17 20.6
2020-Sep-18 14:50 177 7 gusting 14 21.1
2020-Sep-18 14:45 173 12 gusting 14 21.1
2020-Sep-18 14:40 219 6 gusting 17 20.6
2020-Sep-18 14:35 192 7 gusting 14 20.6
2020-Sep-18 14:30 199 6 gusting 17 20.6
2020-Sep-18 14:25 107 7 gusting 17 20.6
2020-Sep-18 14:20 194 9 gusting 13 20.6
2020-Sep-18 14:14 191 7 gusting 13 20.6
2020-Sep-18 14:09 144 0 gusting 14 20.6
2020-Sep-18 14:04 126 1 gusting 14 20.6
2020-Sep-18 13:59 171 2 gusting 14 20.0
2020-Sep-18 13:54 132 2 gusting 17 20.0
2020-Sep-18 13:49 149 4 gusting 17 20.0
2020-Sep-18 13:44 100 2 gusting 8 20.0
2020-Sep-18 13:39 124 3 gusting 10 19.4
2020-Sep-18 13:34 198 1 gusting 10 19.4
2020-Sep-18 13:29 202 5 gusting 8 18.9
2020-Sep-18 13:24 191 5 gusting 8 18.9
2020-Sep-18 13:18 119 18.3
2020-Sep-18 13:13 195 2 gusting 6 18.3
2020-Sep-18 13:09 088 1 gusting 6 17.8
2020-Sep-18 13:03 134 17.8
2020-Sep-18 12:58 182 1 gusting 4 16.7
2020-Sep-18 12:53 160 0 gusting 6 16.7
2020-Sep-18 12:48 135 16.7
2020-Sep-18 12:43 161 16.7
2020-Sep-18 12:38 181 3 gusting 6 16.7
2020-Sep-18 12:33 078 16.7
2020-Sep-18 12:28 128 16.7
2020-Sep-18 12:23 119 16.7
2020-Sep-18 12:17 116 16.7
2020-Sep-18 12:12 038 0 gusting 4 16.7
2020-Sep-18 12:07 118 2 gusting 4 16.7
2020-Sep-18 12:02 133 16.7
2020-Sep-18 11:57 137 16.7
2020-Sep-18 11:52 081 0 gusting 4 16.7
2020-Sep-18 11:47 118 16.7
2020-Sep-18 11:42 150 16.7
2020-Sep-18 11:37 105 16.7
2020-Sep-18 11:32 129 16.7
2020-Sep-18 11:26 156 16.7
2020-Sep-18 11:21 159 0 gusting 6 16.7
2020-Sep-18 11:16 049 1 gusting 4 16.7
2020-Sep-18 11:11 110 1 gusting 6 16.7
2020-Sep-18 11:06 130 16.7
2020-Sep-18 11:01 112 1 gusting 4 16.7
2020-Sep-18 10:56 113 0 gusting 4 16.7
2020-Sep-18 10:51 083 0 gusting 4 16.7
2020-Sep-18 10:46 122 0 gusting 4 16.7
2020-Sep-18 10:41 143 16.7
2020-Sep-18 10:36 091 1 gusting 4 16.7
2020-Sep-18 10:30 132 16.7
2020-Sep-18 10:25 130 17.2
2020-Sep-18 10:20 161 0 gusting 4 17.2
2020-Sep-18 10:15 133 0 gusting 6 17.2
2020-Sep-18 10:10 126 1 gusting 6 17.2
2020-Sep-18 10:05 157 17.2
2020-Sep-18 10:00 145 0 gusting 6 17.2
2020-Sep-18 09:55 129 1 gusting 4 17.2
2020-Sep-18 09:50 123 17.2
2020-Sep-18 09:45 126 17.2
2020-Sep-18 09:40 155 0 gusting 4 17.2
2020-Sep-18 09:34 187 17.2
2020-Sep-18 09:29 102 17.2
2020-Sep-18 09:24 104 0 gusting 6 17.2
2020-Sep-18 09:19 118 1 gusting 6 17.2
2020-Sep-18 09:14 109 17.2
2020-Sep-18 09:09 115 17.2
2020-Sep-18 09:04 167 17.2
2020-Sep-18 08:59 120 1 gusting 6 17.2
2020-Sep-18 08:54 134 17.2
2020-Sep-18 08:49 122 1 gusting 8 17.2
2020-Sep-18 08:44 161 1 gusting 8 17.2
2020-Sep-18 08:38 096 17.2
2020-Sep-18 08:33 133 17.2
2020-Sep-18 08:28 126 17.2
2020-Sep-18 08:23 100 17.2
2020-Sep-18 08:18 130 17.2
2020-Sep-18 08:13 136 17.2
2020-Sep-18 08:08 119 1 gusting 6 16.7
2020-Sep-18 08:03 118 16.7
2020-Sep-18 07:58 178 2 gusting 8 16.7
2020-Sep-18 07:53 140 2 gusting 8 16.7
2020-Sep-18 07:48 050 0 gusting 4 16.7
2020-Sep-18 07:42 051 0 gusting 6 16.7
2020-Sep-18 07:38 199 1 gusting 6 16.7
2020-Sep-18 07:32 118 16.7
2020-Sep-18 07:22 172 6 gusting 10 16.1
2020-Sep-18 07:17 165 0 gusting 4 16.1
2020-Sep-18 07:12 133 16.1
2020-Sep-18 07:07 127 16.1
2020-Sep-18 07:02 118 16.1
2020-Sep-18 06:57 124 16.1
2020-Sep-18 06:52 134 15.6
2020-Sep-18 06:47 119 0 gusting 1 15.6
2020-Sep-18 06:42 133 15.6
2020-Sep-18 06:36 121 15.6
2020-Sep-18 06:31 156 15.6
2020-Sep-18 06:26 145 15.6
2020-Sep-18 06:21 106 15.6
2020-Sep-18 06:16 121 15.0
2020-Sep-18 06:11 157 15.0
2020-Sep-18 06:06 157 15.0
2020-Sep-18 06:01 125 15.0
2020-Sep-18 05:55 121 15.0
2020-Sep-18 05:51 128 15.0
2020-Sep-18 05:45 136 15.0
2020-Sep-18 05:40 139 15.0
2020-Sep-18 05:35 175 15.0
2020-Sep-18 05:30 132 15.0
2020-Sep-18 05:25 139 15.0
2020-Sep-18 05:20 130 15.0
2020-Sep-18 05:15 050 2 gusting 4 15.0
2020-Sep-18 05:10 047 2 gusting 4 15.0
2020-Sep-18 05:05 119 15.0
2020-Sep-18 04:59 113 15.0
2020-Sep-18 04:54 136 15.0
2020-Sep-18 04:49 132 15.0
2020-Sep-18 04:44 147 15.0
2020-Sep-18 04:39 125 15.0
2020-Sep-18 04:34 107 15.0
2020-Sep-18 04:29 123 1 gusting 4 15.0
2020-Sep-18 04:24 135 15.0
2020-Sep-18 04:19 119 15.0
2020-Sep-18 04:14 154 15.0
2020-Sep-18 04:08 128 15.0
2020-Sep-18 04:03 128 14.4
2020-Sep-18 03:58 160 14.4
2020-Sep-18 03:53 128 14.4
2020-Sep-18 03:48 157 14.4
2020-Sep-18 03:43 200 14.4
2020-Sep-18 03:38 116 14.4
2020-Sep-18 03:33 126 0 gusting 4 14.4
2020-Sep-18 03:28 188 14.4
2020-Sep-18 03:23 201 14.4
2020-Sep-18 03:17 020 14.4
2020-Sep-18 03:12 264 3 gusting 6 14.4
2020-Sep-18 03:07 192 1 gusting 4 13.9
2020-Sep-18 03:02 131 0 gusting 6 13.9
2020-Sep-18 02:57 154 13.9
2020-Sep-18 02:52 259 2 gusting 6 13.9
2020-Sep-18 02:47 220 0 gusting 8 14.4
2020-Sep-18 02:42 206 3 gusting 10 14.4
2020-Sep-18 02:37 172 4 gusting 10 14.4
2020-Sep-18 02:32 072 3 gusting 8 14.4
2020-Sep-18 02:27 326 2 gusting 8 14.4
2020-Sep-18 02:21 133 14.4
2020-Sep-18 02:16 041 15.0
2020-Sep-18 02:11 206 2 gusting 6 15.0
2020-Sep-18 02:06 214 0 gusting 6 15.6
2020-Sep-18 02:01 263 1 gusting 6 15.6
2020-Sep-18 01:56 250 1 gusting 6 15.6
2020-Sep-18 01:51 015 1 gusting 4 16.1
2020-Sep-18 01:46 122 16.1
2020-Sep-18 01:41 005 0 gusting 1 16.1
2020-Sep-18 01:35 125 16.1
2020-Sep-18 01:31 167 16.1
2020-Sep-18 01:25 141 16.1
2020-Sep-18 01:20 151 16.1
2020-Sep-18 01:15 160 16.1
2020-Sep-18 01:10 160 15.6
2020-Sep-18 01:05 132 15.6
2020-Sep-18 01:00 131 16.1
2020-Sep-18 00:55 161 16.7
2020-Sep-18 00:50 079 16.7
2020-Sep-18 00:44 320 1 gusting 8 16.7
2020-Sep-18 00:39 206 1 gusting 6 16.7
2020-Sep-18 00:34 253 2 gusting 4 17.2
2020-Sep-18 00:29 237 1 gusting 4 17.2
2020-Sep-18 00:24 049 0 gusting 1 17.2
2020-Sep-18 00:19 128 17.2
2020-Sep-18 00:14 158 17.8
2020-Sep-18 00:09 132 17.8
2020-Sep-18 00:04 208 0 gusting 4 17.8
2020-Sep-17 23:59 256 1 gusting 4 17.8
2020-Sep-17 23:53 359 1 gusting 4 18.3
2020-Sep-17 23:48 113 18.3
2020-Sep-17 23:43 186 0 gusting 4 18.3
2020-Sep-17 23:38 124 18.9
2020-Sep-17 23:33 053 1 gusting 6 18.9
2020-Sep-17 23:28 088 2 gusting 10 19.4
2020-Sep-17 23:23 212 3 gusting 10 19.4
2020-Sep-17 23:18 135 19.4
2020-Sep-17 23:13 141 19.4
2020-Sep-17 23:08 153 19.4
2020-Sep-17 23:02 027 19.4
2020-Sep-17 22:57 155 1 gusting 6 19.4
2020-Sep-17 22:52 139 19.4
2020-Sep-17 22:47 297 19.4
2020-Sep-17 22:42 102 19.4
2020-Sep-17 22:37 117 19.4
2020-Sep-17 22:33 122 19.4
2020-Sep-17 22:27 133 19.4
2020-Sep-17 22:22 134 19.4
2020-Sep-17 22:16 128 20.0
2020-Sep-17 22:11 133 20.0
2020-Sep-17 22:06 135 20.0
2020-Sep-17 22:01 135 20.0
2020-Sep-17 21:56 136 20.6
2020-Sep-17 21:51 143 20.6
2020-Sep-17 21:46 130 20.6
2020-Sep-17 21:41 129 20.6
2020-Sep-17 21:36 132 20.6
2020-Sep-17 21:30 132 20.6
2020-Sep-17 21:25 138 20.6
2020-Sep-17 21:20 133 20.6
2020-Sep-17 21:15 125 2 gusting 4 20.6
2020-Sep-17 21:10 130 20.6
2020-Sep-17 21:05 140 20.6
2020-Sep-17 21:00 127 20.6
2020-Sep-17 20:55 133 20.6
2020-Sep-17 20:50 130 20.6
2020-Sep-17 20:45 140 20.6
2020-Sep-17 20:40 144 20.6
2020-Sep-17 20:34 130 20.6
2020-Sep-17 20:29 120 20.6
2020-Sep-17 20:24 117 20.6
2020-Sep-17 20:19 131 20.6
2020-Sep-17 20:14 123 20.6
2020-Sep-17 20:09 083 20.6
2020-Sep-17 20:04 131 20.6
2020-Sep-17 19:59 129 20.6
2020-Sep-17 19:54 133 20.6
2020-Sep-17 19:48 142 21.1
2020-Sep-17 19:43 136 21.1
2020-Sep-17 19:38 101 0 gusting 4 21.1
2020-Sep-17 19:33 075 1 gusting 4 21.1
2020-Sep-17 19:28 097 21.1
2020-Sep-17 19:23 121 21.1
2020-Sep-17 19:18 129 21.1
2020-Sep-17 19:13 112 21.1
2020-Sep-17 19:08 081 21.1
2020-Sep-17 19:03 113 21.1
2020-Sep-17 18:58 154 0 gusting 1 21.1
2020-Sep-17 18:52 130 21.1
2020-Sep-17 18:47 144 0 gusting 4 21.1
2020-Sep-17 18:42 123 1 gusting 4 21.7
2020-Sep-17 18:37 078 0 gusting 4 21.7
2020-Sep-17 18:32 031 1 gusting 4 21.7
2020-Sep-17 18:27 099 0 gusting 6 21.7
2020-Sep-17 18:22 095 0 gusting 6 21.7
2020-Sep-17 18:17 101 2 gusting 6 22.2
2020-Sep-17 18:12 097 3 gusting 6 22.2
2020-Sep-17 18:07 142 3 gusting 6 22.2
2020-Sep-17 18:01 134 1 gusting 6 22.8
2020-Sep-17 17:56 152 0 gusting 6 22.8
2020-Sep-17 17:51 139 1 gusting 6 22.8
2020-Sep-17 17:46 080 1 gusting 6 22.8
2020-Sep-17 17:41 136 1 gusting 10 22.8
2020-Sep-17 17:36 178 6 gusting 10 22.8
2020-Sep-17 17:31 105 3 gusting 8 22.8
2020-Sep-17 17:26 140 1 gusting 6 23.3
2020-Sep-17 17:21 134 1 gusting 8 23.3
2020-Sep-17 17:16 113 0 gusting 8 23.3
2020-Sep-17 17:11 107 23.3
2020-Sep-17 17:06 128 2 gusting 8 23.9
2020-Sep-17 17:00 138 23.9
2020-Sep-17 16:55 169 6 gusting 10 24.4
2020-Sep-17 16:50 159 3 gusting 10 24.4
2020-Sep-17 16:45 113 0 gusting 10 24.4
2020-Sep-17 16:40 102 24.4
2020-Sep-17 16:35 124 1 gusting 8 24.4
2020-Sep-17 16:30 138 2 gusting 6 24.4
2020-Sep-17 16:25 097 24.4
2020-Sep-17 16:20 120 6 gusting 8 24.4
2020-Sep-17 16:15 141 3 gusting 8 24.4
2020-Sep-17 16:09 154 24.4
2020-Sep-17 16:04 161 2 gusting 10 24.4
2020-Sep-17 15:59 144 3 gusting 14 24.4
2020-Sep-17 15:54 139 5 gusting 14 24.4
2020-Sep-17 15:49 154 24.4
2020-Sep-17 15:44 137 2 gusting 10 24.4
2020-Sep-17 15:39 201 0 gusting 10 24.4
2020-Sep-17 15:34 267 24.4
2020-Sep-17 15:29 182 6 gusting 13 25.0
2020-Sep-17 15:24 162 6 gusting 13 25.0
2020-Sep-17 15:19 133 10 gusting 13 25.6
2020-Sep-17 15:13 141 6 gusting 14 25.6
2020-Sep-17 15:08 121 2 gusting 14 25.6
2020-Sep-17 15:03 111 2 gusting 13 26.1
2020-Sep-17 14:58 078 3 gusting 13 26.1
2020-Sep-17 14:53 193 1 gusting 14 26.1
2020-Sep-17 14:48 091 1 gusting 14 26.1
2020-Sep-17 14:43 140 9 gusting 14 26.1
2020-Sep-17 14:38 255 9 gusting 13 26.1
2020-Sep-17 14:33 248 6 gusting 13 26.1
2020-Sep-17 14:28 160 3 gusting 14 26.1
2020-Sep-17 14:22 154 6 gusting 14 26.1
2020-Sep-17 14:17 153 3 gusting 13 26.1
2020-Sep-17 14:12 134 4 gusting 14 26.7
2020-Sep-17 14:07 169 6 gusting 17 26.7
2020-Sep-17 14:02 157 10 gusting 17 26.7
2020-Sep-17 13:57 138 2 gusting 17 26.7
2020-Sep-17 13:52 162 10 gusting 21 26.7
2020-Sep-17 13:47 184 13 gusting 21 26.7
2020-Sep-17 13:42 181 6 gusting 14 26.7
2020-Sep-17 13:37 171 12 gusting 21 26.7
2020-Sep-17 13:32 181 10 gusting 21 26.7
2020-Sep-17 13:26 139 9 gusting 19 26.7
2020-Sep-17 13:21 164 5 gusting 17 26.7
2020-Sep-17 13:16 167 5 gusting 13 26.7
2020-Sep-17 13:11 168 7 gusting 14 26.7
2020-Sep-17 13:06 128 0 gusting 13 26.7
2020-Sep-17 13:01 148 5 gusting 13 26.1
2020-Sep-17 12:55 157 5 gusting 13 26.1
2020-Sep-17 12:50 104 1 gusting 10 25.6
2020-Sep-17 12:45 140 25.6
2020-Sep-17 12:40 209 0 gusting 13 25.6
2020-Sep-17 12:30 128 0 gusting 17 25.0
2020-Sep-17 12:25 202 5 gusting 17 25.0
2020-Sep-17 12:19 112 8 gusting 13 25.0
2020-Sep-17 12:14 184 6 gusting 13 25.0
2020-Sep-17 12:09 115 2 gusting 13 25.6
2020-Sep-17 12:04 143 3 gusting 10 25.6
2020-Sep-17 11:59 146 3 gusting 10 25.6
2020-Sep-17 11:54 119 2 gusting 10 25.6
2020-Sep-17 11:49 094 3 gusting 8 25.6
2020-Sep-17 11:44 076 1 gusting 13 25.6
2020-Sep-17 11:39 201 0 gusting 13 25.0
2020-Sep-17 11:34 125 5 gusting 13 25.0
2020-Sep-17 11:29 199 4 gusting 10 24.4
2020-Sep-17 11:23 177 5 gusting 8 24.4
2020-Sep-17 11:18 073 2 gusting 8 24.4
2020-Sep-17 11:14 139 5 gusting 8 24.4
2020-Sep-17 11:08 118 3 gusting 4 24.4
2020-Sep-17 11:03 109 3 gusting 6 25.0
2020-Sep-17 10:58 115 0 gusting 6 25.0
2020-Sep-17 10:53 088 0 gusting 6 25.0
2020-Sep-17 10:48 145 0 gusting 6 25.0
2020-Sep-17 10:43 106 1 gusting 6 25.0
2020-Sep-17 10:38 171 2 gusting 6 24.4
2020-Sep-17 10:33 185 3 gusting 6 24.4
2020-Sep-17 10:28 172 0 gusting 6 24.4
2020-Sep-17 10:23 135 24.4
2020-Sep-17 10:17 121 0 gusting 8 23.9
2020-Sep-17 10:12 111 24.4
2020-Sep-17 10:07 119 0 gusting 6 24.4
2020-Sep-17 10:02 086 2 gusting 4 23.9
2020-Sep-17 09:57 137 23.3
2020-Sep-17 09:52 119 23.3
2020-Sep-17 09:47 068 1 gusting 4 23.3
2020-Sep-17 09:42 016 1 gusting 4 22.8
2020-Sep-17 09:37 160 22.2
2020-Sep-17 09:32 123 22.2
2020-Sep-17 09:27 094 4 gusting 6 22.2
2020-Sep-17 09:21 124 21.7
2020-Sep-17 09:16 175 21.7
2020-Sep-17 09:11 145 21.7
2020-Sep-17 09:06 131 2 gusting 4 21.1
2020-Sep-17 09:01 161 2 gusting 6 21.1